Regional Weather Roundup
Issued by NWS Lake Charles, LA

Home | Current Version | Previous Version | Text Only | Print | Product List | Glossary On
Versions: 1 2 3 4 5 6 7 8 9 10 11 12 13 14 15 16 17 18 19 20 21 22 23 24 25 26 27 28 29 30 31 32 33 34 35 36 37 38 39 40 41 42 43 44 45 46 47 48 49 50
461
ASUS44 KLCH 061810
RWRLCH
REGIONAL WEATHER ROUNDUP
NATIONAL WEATHER SERVICE LAKE CHARLES LA
1200 PM CST SAT FEB 06 2016

Note: "fair" indicates few or no clouds below 12,000 feet with no
significant weather and/or obstructions to visibility.


ACROSS SOUTHEAST TEXAS

CITY           SKY/WX    TMP DP  RH WIND       PRES   REMARKS
BEAUMONT       PTSUNNY   54  44  69 E9        30.30F
BEAUMONT CITY  CLOUDY    54  42  64 E6        30.31S
ORANGE         CLOUDY    50  38  62 E8        30.32F
JASPER         CLOUDY    50  40  67 CALM      30.34S
$$

ACROSS CENTRAL LOUISIANA

CITY           SKY/WX    TMP DP  RH WIND       PRES   REMARKS
LEESVILLE      CLOUDY    47  39  74 SE8       30.31F
FULLERTON      CLOUDY    49  39  68 CALM      30.29F
ALEXANDRIA INT CLOUDY    50  29  44 CALM      30.31F
ESLER FIELD    PTSUNNY   57  22  25 SW6       30.31F
DERIDDER         N/A     46  38  71 SE7       30.34F
OAKDALE          N/A     49  34  54 SE3       30.33F
OPELOUSAS      MOCLDY    53  26  35 S5        30.32F
$$

ACROSS SOUTHWEST AND SOUTH CENTRAL LOUISIANA

CITY           SKY/WX    TMP DP  RH WIND       PRES   REMARKS
SULPHUR        CLEAR     53  38  56 MISG      30.31F
LAKE CHARLES   CLOUDY    52  36  54 E13       30.31F
CHENNAULT INT  PTSUNNY   50  36  57 E13       30.32F
CAMERON PHI    PTCLDY    54  39  58 E16       30.32F
DEQUINCY       MOCLDY    50  38  63 E5        30.31F
JENNINGS       FAIR      48  30  49 SE5       30.33F
LAFAYETTE      CLOUDY    53  23  31 NW3       30.34F
NEW IBERIA     CLOUDY    54  27  35 NW5       30.34F
ABBEVILLE      CLOUDY    52  28  39 MISG      30.34F
PATTERSON      MOSUNNY   54  27  35 NE9       30.33F
SALT POINT       N/A     54  31  41 VRB5      30.31F
$$

SELECTED SITES ACROSS THE REGION

CITY           SKY/WX    TMP DP  RH WIND       PRES   REMARKS
HOUSTON BUSH   MOSUNNY   56  33  42 NW10G23   30.31F
HOUSTON HOBBY  MOSUNNY   56  32  40 W16G25    30.30F
GALVESTON      SUNNY     59  41  51 W12       30.29F
COLLEGE STAT   SUNNY     54  36  50 NW17G25   30.33F
CONROE         SUNNY     54  33  45 NW7       30.31F
HUNTSVILLE     SUNNY     53  33  46 NW8G17    30.30F
LUFKIN         CLOUDY    47  41  80 VRB5      30.32S
SHREVEPORT     CLOUDY    49  33  54 NW7       30.35S
MONROE         CLOUDY    52  25  35 CALM      30.36F
NATCHEZ MS     SUNNY     54  19  26 SE6       30.32F
BATON ROUGE    MOSUNNY   56  22  26 E5        30.32F
N.O. INTL ARPT CLOUDY    56  25  30 NE12      30.32F
SLIDELL        MOSUNNY   55  22  27 E6        30.32F
$$

MARINE REPORTS

STATION/POSITION TIME  SKY/WX   TEMP    WIND        PRES    VSBY
                                AIR SEA DIR/SP/G
                 (UTC)          (F)     (DEG/KT/KT) (MB)    (MI)
BUOY 30 S HIGH I 1750            53 59  290/  6/ 10 1025.8F
WVE H/P(F/S)=  2/ 6

SEA RIM ST PARK  1800            52     120/ 11/ 14 1026.3F
PORT ARTHUR      1700               56   80/  9/ 12 1026.8F
SABINE PASS N    1700            50 55   80/ 10/ 13 1027.8S
TEXAS POINT      NOT AVBL
CALCASIEU PASS   1700            49 55   80/ 11/ 16 1025.7F
LK CHARLES BEACH 1700            47 53              1027.8F
MARSH ISLAND     1700            50      90/  9/ 11   N/A
WVE H/P(F/S)=  1

FRESH WATER LOCK 1700            48 56   30/  7/  9 1027.9R
AMERADA PASS     1700            51 51   90/  8/ 11 1027.0F
$$




USA.gov is the U.S. government's official web portal to all federal, state and local government web resources and services.